Location: Piotrkow Trybunalski
(51.4000°N, 19.6830°E)
Time: 18:20:49
(UTC+01:00)

Tiros 1 - Visible Passes

Search period start: 07 February 2023 00:00
Search period end: 17 February 2023 00:00
Orbit: 629 x 662 km, 48.4° (Epoch: 06 February)

Date Brightness Start Highest point End Pass type
(mag) Time Alt. Az. Time Alt. Az. Time Alt. Az.
07 Feb 9.2 05:06:35 14° SSW 05:06:35 14° SSW 05:08:03 10° S visible
14 Feb 9.4 18:52:09 10° SSE 18:52:25 11° SSE 18:52:25 11° SSE visible
15 Feb 9.0 19:15:24 10° SSW 19:17:14 18° S 19:17:14 18° S visible
16 Feb 9.2 18:01:19 10° SSE 18:02:48 11° SE 18:04:16 10° ESE visible
16 Feb 8.8 19:39:47 10° SW 19:41:57 24° SSW 19:41:57 24° SSW visible
